User: anonymous   Login
Location: Red Shale Campground
(45.5700°N, 106.1600°W)
Time: 01:09:29
(UTC-06:00)
Language:

FENGYUN 3A - Orbit

View from above orbital plane
View from above orbital plane
View from above satellite
View from above satellite

Ground track
Ground track

The orbit data is extracted from the following two-line orbital elements,

1 32958U 08026A   17149.88974641 -.00000123 +00000-0 -38672-4 0  9990
2 32958 098.4080 179.4847 0009133 340.7725 019.3098 14.19661842466741
Epoch (UTC): 29 May 2017 21:21:14
Eccentricity: 0.0009133
inclination: 98.4080°
perigee height: 820 km
apogee height: 833 km
right ascension of ascending node: 179.4847°
argument of perigee: 340.7725°
revolutions per day: 14.19661842
mean anomaly at epoch: 19.3098°
orbit number at epoch: 46674

The dashed part of the orbit path shows where the satellite is in the earth's shadow,  

DLR